Temperature
28 28 28 28 28 27 27 27 27 27 27 28 28 27 26 25 23 22 21 20 19 19 18 17 17 16 15 14 14 13 12 12 12 11 11 10 10 10 10 10 9 9 9 9
27 28 28 27 28 28 27 27 27 27 27 28 26 25 24 24 23 22 21 21 20 19 18 17 17 16 15 14 13 13 12 12 12 11 11 10 10 10 10 9 9 9 9 9
27 28 27 27 28 28 28 28 27 27 28 27 26 25 24 23 23 22 22 21 20 19 18 17 17 16 15 14 13 13 12 12 11 11 11 10 10 10 10 9 9 9 9 9
27 26 25 27 29 28 28 28 28 28 27 27 26 25 24 23 23 22 22 21 20 19 18 17 17 16 15 14 13 13 12 12 11 11 10 10 10 10 9 9 9 9 9 9
26 26 26 28 28 28 27 27 28 28 27 27 25 24 24 23 22 22 21 21 20 19 18 17 17 16 15 14 13 13 12 12 11 11 10 10 10 10 10 9 9 9 9 9
26 25 25 27 28 27 27 27 28 28 27 26 25 26 26 24 23 22 21 20 19 19 18 17 16 16 15 14 13 13 12 12 11 11 10 10 10 10 10 9 9 9 9 9
25 25 26 27 27 26 26 26 27 27 27 26 26 26 25 24 23 22 21 20 19 19 18 17 16 16 15 14 14 13 12 12 11 11 10 10 10 10 10 9 9 9 9 9
25 25 25 26 26 26 25 25 25 26 26 25 25 25 24 23 22 21 21 20 19 19 18 17 16 16 15 14 13 13 12 11 11 10 10 10 10 10 9 9 9 9 9 8
26 26 24 24 24 23 22 23 23 24 24 24 24 24 23 23 22 21 21 20 19 19 18 17 16 16 15 14 13 13 12 12 11 11 10 10 10 10 10 9 9 9 9 9
25 25 24 22 21 20 20 21 21 22 22 23 23 23 22 22 21 20 20 20 19 18 18 17 16 16 15 14 14 13 12 12 11 11 11 10 10 10 10 10 10 10 9 9
24 24 23 22 19 18 19 19 20 20 21 21 21 21 21 21 20 20 19 19 18 18 17 17 16 15 15 14 14 13 13 12 11 11 11 10 10 10 10 10 9 9 9 9
23 20 21 19 17 17 18 18 18 19 19 19 20 20 20 20 19 19 18 18 18 17 17 17 16 15 15 14 14 13 12 12 11 11 11 11 11 11 11 10 10 9 9 9
18 17 17 17 16 16 17 17 17 17 17 18 18 18 18 18 17 17 17 17 17 17 17 16 15 15 14 14 14 13 12 12 11 11 11 11 11 11 11 11 10 10 9 9
16 16 16 16 16 16 16 17 17 16 16 16 16 16 16 16 16 16 16 16 16 16 16 15 15 14 14 13 13 13 12 12 11 11 11 11 11 11 11 10 10 10 10 9
15 15 15 15 15 15 15 16 16 16 15 15 15 15 15 15 15 15 15 15 15 15 15 15 14 14 13 13 13 13 12 12 11 11 11 11 11 11 11 10 10 10 10 9
15 15 15 14 14 14 15 15 15 15 14 14 14 14 14 14 14 14 14 14 14 14 14 14 14 13 13 13 12 12 12 12 12 11 11 11 11 11 11 11 10 10 9 9
14 14 14 13 13 13 13 13 13 13 13 13 13 13 13 13 13 13 13 13 13 13 13 13 13 13 12 12 12 12 12 12 11 11 11 11 11 11 11 10 10 10 9 9
12 12 12 12 12 12 13 13 12 12 12 12 12 12 12 12 12 12 12 12 12 12 12 12 12 12 12 11 11 11 11 11 11 11 11 11 11 10 10 10 10 10 9 9
12 12 12 12 11 11 11 11 11 11 11 11 11 11 11 11 11 11 11 11 11 11 11 11 11 11 11 11 11 11 11 11 11 11 11 11 10 10 10 10 10 10 9 9
11 11 11 11 11 11 11 11 11 11 11 11 10 10 10 10 10 10 10 10 11 10 10 10 10 10 10 10 10 10 10 11 11 11 11 11 10 10 10 10 10 10 9 9
11 11 11 11 11 11 10 10 10 10 10 10 10 10 10 10 10 10 10 10 10 9 9 9 9 9 10 9 9 10 10 10 10 11 11 10 10 10 10 9 9 9 9 9
11 11 11 10 10 10 10 10 10 10 10 10 10 10 9 9 9 9 9 9 9 9 8 9 9 9 9 9 9 9 10 10 10 10 10 10 9 9 9 9 9 9 9 8
10 10 10 10 10 10 9 10 10 10 9 9 9 9 9 9 9 9 9 9 9 8 8 8 8 8 8 8 8 9 9 9 9 9 9 9 9 9 9 9 8 8 8 8
10 10 9 9 9 9 9 10 9 9 9 9 9 9 9 9 9 9 9 8 8 7 7 7 7 7 7 7 8 8 8 8 8 8 8 8 8 8 8 8 8 8 8 8
9 9 9 9 9 9 9 9 9 9 9 9 9 9 9 9 9 9 8 8 8 7 7 7 7 7 7 7 7 7 7 7 8 8 7 8 8 7 7 8 7 8 8 8
9 9 9 9 8 8 9 9 9 9 9 9 9 9 9 9 9 8 8 8 8 7 7 7 7 6 6 6 6 6 6 7 7 7 7 7 7 7 7 7 7 7 7 7
9 9 9 9 9 9 9 9 9 9 9 9 9 8 8 8 8 8 8 8 7 7 7 6 6 6 6 6 6 6 6 6 6 6 6 6 6 6 6 7 7 7 7 7
Wind_Speed
8 7 7 9 10 9 11 12 12 10 9 7 4 5 6 7 8 9 10 11 11 9 8 7 6 6 5 5 5 5 6 8 8 8 9 9 10 10 10 11 12 12 12 12
11 10 9 12 12 12 11 11 11 10 9 3 1 4 6 8 9 10 10 11 10 9 8 8 7 6 5 5 5 5 7 8 8 9 9 10 10 10 11 11 11 11 12 13
13 10 10 12 9 8 8 7 7 8 4 2 3 5 7 8 9 9 9 9 10 9 8 7 6 6 5 5 5 6 7 8 9 9 9 10 10 11 11 11 12 12 12 13
12 9 12 6 1 4 7 7 6 6 4 3 3 4 6 7 8 9 8 9 9 8 8 7 6 6 5 5 6 6 7 8 9 9 10 10 10 11 11 11 11 12 12 13
10 11 11 7 5 5 6 7 5 6 5 4 4 5 7 9 10 9 8 9 8 8 7 6 6 6 5 6 6 7 8 8 9 9 10 10 11 11 11 11 12 12 12 12
8 9 9 3 3 3 4 7 3 5 6 6 7 7 5 7 10 10 9 9 8 8 7 7 6 6 6 7 7 8 8 8 9 9 10 11 11 12 11 11 12 12 12 12
10 10 8 3 4 5 6 4 3 4 6 7 9 8 1 6 9 10 10 11 10 9 8 8 7 6 7 8 8 8 8 8 9 9 10 11 11 11 11 11 12 12 13 13
6 8 3 6 2 2 6 8 6 6 6 8 10 9 6 7 8 10 11 12 11 10 9 8 8 8 8 8 8 7 8 9 10 10 10 10 11 11 11 11 12 12 11 12
4 3 5 5 5 7 9 10 10 9 9 8 10 10 10 10 10 10 11 11 11 11 10 9 8 9 9 8 7 8 9 10 10 10 10 10 11 11 11 11 11 11 11 11
5 2 3 7 8 10 11 11 11 10 9 8 9 10 9 9 9 9 10 10 10 10 10 9 9 9 9 9 8 8 10 10 10 10 11 10 9 10 10 10 10 11 11 11
8 4 3 6 13 14 13 12 11 9 7 6 6 7 7 7 7 7 7 8 8 9 9 9 8 9 9 9 8 9 10 10 10 11 10 10 10 9 11 10 9 10 11 11
4 6 6 7 12 13 12 12 12 11 10 8 6 6 6 5 4 4 5 6 7 7 8 7 7 8 8 8 9 10 10 10 9 9 9 9 10 10 10 12 11 14 16 14
3 5 5 6 10 12 12 12 13 13 12 11 10 8 6 4 3 3 3 4 5 5 5 5 6 8 8 9 10 11 11 10 10 10 9 10 10 10 11 10 13 17 17 17
4 4 7 9 9 12 12 13 13 14 14 13 11 10 8 6 4 3 2 2 2 3 4 4 5 7 8 9 10 11 12 11 10 10 10 10 10 11 11 11 11 10 9 14
10 9 9 9 11 13 13 14 14 15 15 14 13 12 10 8 7 5 4 3 2 3 4 5 6 8 8 10 11 12 12 11 10 10 10 11 11 11 11 11 11 10 10 7
10 11 11 12 13 14 15 15 15 14 14 14 13 12 11 9 8 6 5 4 4 5 6 7 8 8 8 10 11 11 12 13 11 10 11 11 10 11 10 10 10 9 9 9
9 10 11 12 12 13 13 13 13 13 13 13 13 12 11 11 10 9 9 8 8 8 9 9 10 9 10 10 12 11 11 10 12 11 12 11 10 10 10 10 10 9 9 7
9 9 8 9 10 11 12 12 12 12 11 11 11 11 11 11 11 11 12 12 11 11 10 10 11 11 12 12 11 11 11 11 10 11 10 10 10 10 10 10 10 10 9 7
7 7 8 9 9 10 10 11 11 11 10 10 11 11 11 12 12 13 13 13 13 13 12 14 13 14 14 12 10 10 11 12 12 11 10 9 10 11 10 9 9 8 8 7
6 7 8 9 9 10 10 10 11 10 10 10 11 11 11 12 13 13 14 13 11 12 15 16 16 15 14 11 8 11 12 12 12 11 10 10 10 9 9 9 8 7 7 7
6 8 9 10 10 10 10 11 11 11 11 10 11 12 12 13 14 14 14 14 13 13 16 16 14 13 12 10 8 11 12 12 12 11 10 10 9 8 8 7 7 6 6 6
8 10 11 11 12 12 11 11 11 12 12 11 12 13 14 14 15 14 14 12 14 13 15 16 14 12 12 11 11 12 12 11 11 10 9 8 7 7 7 7 6 5 5 5
10 11 12 12 13 13 13 13 13 12 12 13 14 14 14 14 13 14 14 12 14 15 16 15 13 11 12 12 12 11 11 11 10 9 8 6 6 6 6 6 5 5 5 5
11 12 13 13 13 14 15 14 14 12 14 14 14 14 14 14 13 13 13 14 14 14 16 14 11 12 13 11 10 9 9 8 8 7 6 6 5 5 4 4 4 4 4 5
13 13 14 14 14 14 14 15 15 15 15 13 15 15 14 13 13 14 14 16 16 15 16 14 10 10 11 10 8 7 7 6 5 4 4 4 4 3 3 3 4 4 4 3
13 13 13 14 14 13 14 14 13 13 13 14 14 14 14 13 15 14 13 16 18 15 14 13 12 10 9 8 7 6 5 3 3 3 3 2 2 2 2 2 4 4 3 3
15 14 13 13 13 13 13 13 14 14 14 14 15 15 15 15 15 15 16 15 14 14 13 12 11 9 8 7 6 5 3 2 2 2 1 1 1 1 1 1 2 3 3 3
Wind_Direction
274 277 274 279 277 261 256 272 282 287 289 292 263 226 207 196 188 187 187 190 194 198 198 202 210 218 233 250 257 269 278 283 287 289 289 287 288 289 290 290 289 289 288 285
267 263 264 272 273 271 263 262 267 275 282 299 168 184 187 190 192 198 201 201 200 202 203 208 215 223 233 248 260 267 276 284 290 291 289 289 291 291 292 292 292 290 287 287
269 269 267 265 264 264 258 250 260 273 300 135 189 198 201 199 204 212 212 206 204 205 207 210 215 220 233 247 260 268 276 284 289 290 290 292 295 297 297 297 295 292 290 288
264 262 258 272 248 263 260 257 253 270 275 221 223 210 206 207 212 218 217 211 206 206 205 206 208 214 229 249 258 268 277 285 289 291 291 293 295 297 298 297 297 294 292 292
256 252 254 252 211 221 242 263 249 250 243 206 186 214 223 209 214 220 217 210 205 205 204 203 209 217 230 251 262 271 279 286 291 293 293 293 296 300 301 298 296 295 294 293
243 258 262 269 128 173 240 259 221 215 225 204 194 252 263 179 197 209 207 199 197 196 199 202 212 217 235 255 264 273 283 288 291 290 288 291 295 298 298 296 293 296 297 295
245 253 258 49 120 180 241 340 28 236 235 216 221 257 303 166 190 201 201 197 195 198 204 208 208 214 237 258 268 278 285 286 286 286 286 286 290 291 293 293 295 295 294 293
242 250 258 67 160 250 349 351 330 300 275 250 245 247 226 207 202 203 204 203 199 202 208 208 207 215 238 256 268 277 281 282 284 286 287 290 290 289 290 292 292 291 293 294
272 321 48 20 348 345 339 324 319 311 295 276 263 255 242 230 221 215 211 208 205 207 211 210 210 219 240 256 264 270 274 278 282 285 284 284 286 288 289 288 291 298 302 301
265 257 28 24 18 5 352 335 324 316 305 286 268 265 257 244 233 225 218 210 206 209 215 217 216 222 236 250 255 261 268 274 278 280 282 283 283 285 290 296 297 301 303 303
263 299 321 30 15 1 355 353 351 346 338 321 297 285 271 256 245 234 221 212 207 211 219 224 224 229 237 242 246 256 264 270 275 277 280 285 282 282 286 289 292 291 298 301
325 15 346 360 4 3 8 11 9 5 6 6 352 331 315 293 275 250 224 204 203 211 223 231 233 239 244 243 242 252 262 266 273 277 282 283 286 287 258 250 254 246 250 264
346 16 35 29 23 20 24 26 27 27 22 18 15 5 354 343 330 300 251 217 207 208 221 234 246 251 250 244 241 246 257 267 274 278 280 281 285 289 294 277 241 238 241 244
71 86 63 43 34 28 27 30 33 34 30 26 21 17 12 9 7 356 326 295 258 234 235 241 253 264 265 254 244 247 254 259 259 267 272 277 282 284 286 291 297 298 257 231
74 76 73 58 45 38 32 30 31 28 24 22 21 19 15 10 8 2 354 346 307 265 258 262 262 266 265 257 247 247 252 258 259 265 271 274 277 279 281 286 291 299 306 284
88 76 64 52 41 31 26 24 21 17 14 12 11 10 7 6 5 3 358 344 315 295 286 278 273 274 273 262 252 250 250 247 250 263 268 271 273 277 281 286 290 297 301 305
78 60 45 35 28 21 17 13 10 5 3 2 0 359 357 357 356 353 345 335 317 304 296 288 283 286 283 269 257 257 260 250 218 245 259 267 274 279 283 286 290 296 299 308
69 56 39 24 11 5 1 359 358 356 352 349 348 352 352 350 347 343 337 331 323 313 307 303 304 301 288 275 263 261 261 263 259 254 261 267 273 278 280 282 285 291 298 299
56 39 23 12 3 354 349 346 345 344 343 345 345 346 345 344 341 337 334 328 322 319 328 326 321 303 293 284 272 261 260 261 261 257 258 258 259 266 272 277 282 290 302 308
26 12 1 353 350 344 339 337 334 332 334 336 335 335 336 337 336 333 330 321 325 332 330 326 317 304 295 291 281 271 263 260 261 260 259 261 264 269 271 275 282 291 300 306
348 342 338 335 334 331 329 328 324 321 322 322 323 324 326 326 326 326 324 320 327 334 329 316 308 307 304 312 292 278 271 265 262 261 261 261 265 270 273 280 287 292 297 303
327 326 325 323 322 320 319 315 311 308 309 310 312 315 317 318 320 319 315 315 320 335 328 319 315 326 324 311 289 278 272 268 265 264 262 263 267 272 275 278 282 289 296 306
316 315 312 312 311 310 307 303 302 302 302 304 305 306 308 310 310 310 311 320 322 329 322 316 324 321 308 296 286 279 274 271 267 264 261 259 262 270 276 279 283 291 301 314
308 307 305 304 302 299 297 299 300 299 297 295 293 297 300 300 301 305 311 316 317 318 314 317 308 299 293 290 285 282 278 272 263 258 260 258 257 266 274 284 289 292 298 308
302 302 300 300 297 295 296 295 293 290 288 291 293 296 297 299 303 306 308 310 314 310 313 315 307 298 295 294 291 286 279 279 277 276 272 272 272 275 282 295 306 307 307 314
297 295 296 294 293 291 290 291 292 294 296 297 298 299 301 301 302 302 303 307 311 313 311 314 315 308 305 307 306 298 291 283 271 267 274 282 288 296 301 314 316 319 325 333
291 289 286 286 287 290 294 294 294 294 295 297 300 303 303 303 302 303 305 307 309 312 315 316 315 319 317 315 311 301 298 302 300 304 306 312 320 315 313 324 330 337 340 351
Height
1487 1485 1487 1488 1488 1487 1491 1490 1493 1488 1486 1483 1484 1487 1491 1495 1499 1502 1505 1507 1509 1511 1512 1513 1514 1514 1514 1513 1513 1512 1511 1510 1509 1507 1505 1503 1501 1498 1496 1493 1491 1488 1485 1482
1489 1483 1484 1487 1484 1483 1483 1484 1485 1484 1484 1480 1485 1488 1491 1494 1497 1499 1502 1504 1506 1507 1509 1510 1510 1510 1510 1510 1509 1508 1507 1506 1505 1503 1501 1499 1497 1494 1492 1489 1486 1483 1480 1477
1491 1481 1485 1488 1479 1478 1479 1478 1480 1482 1480 1481 1484 1487 1489 1492 1494 1496 1498 1500 1502 1504 1505 1506 1507 1507 1507 1506 1506 1505 1504 1503 1501 1499 1497 1495 1493 1491 1488 1484 1481 1478 1475 1472
1487 1488 1501 1480 1470 1473 1475 1475 1475 1477 1478 1481 1483 1486 1488 1490 1492 1493 1495 1497 1499 1501 1502 1503 1503 1503 1503 1503 1502 1501 1500 1499 1498 1495 1493 1491 1489 1486 1483 1480 1477 1473 1470 1467
1485 1488 1484 1472 1469 1471 1475 1475 1471 1473 1476 1479 1482 1484 1485 1486 1488 1490 1492 1494 1496 1497 1499 1499 1500 1500 1500 1499 1499 1498 1497 1495 1494 1491 1489 1487 1484 1481 1478 1475 1472 1468 1465 1461
1483 1490 1491 1473 1466 1470 1473 1476 1468 1472 1474 1477 1481 1480 1477 1481 1484 1487 1489 1490 1492 1493 1495 1495 1496 1496 1496 1496 1495 1494 1493 1491 1489 1487 1484 1482 1479 1476 1474 1470 1467 1464 1460 1456
1481 1484 1474 1466 1469 1472 1480 1477 1470 1471 1472 1474 1476 1477 1478 1479 1481 1483 1485 1486 1488 1489 1490 1491 1492 1492 1492 1492 1491 1490 1489 1486 1484 1482 1480 1477 1475 1472 1469 1466 1462 1459 1455 1451
1478 1483 1479 1472 1470 1472 1475 1473 1472 1472 1472 1473 1473 1474 1476 1477 1478 1479 1481 1482 1484 1485 1486 1487 1488 1488 1488 1488 1487 1485 1484 1482 1480 1478 1476 1474 1470 1467 1464 1461 1457 1454 1450 1447
1471 1474 1475 1474 1475 1477 1476 1475 1474 1473 1471 1471 1471 1472 1472 1473 1474 1475 1476 1478 1479 1480 1482 1483 1483 1483 1483 1483 1482 1480 1479 1477 1475 1473 1471 1468 1466 1463 1460 1457 1454 1450 1447 1443
1472 1469 1474 1476 1477 1477 1476 1475 1473 1471 1469 1468 1468 1468 1468 1469 1470 1471 1472 1473 1474 1476 1477 1478 1479 1479 1479 1478 1477 1475 1474 1472 1470 1468 1466 1464 1461 1459 1456 1453 1450 1446 1443 1439
1472 1473 1475 1476 1479 1478 1476 1473 1471 1469 1467 1466 1465 1464 1465 1465 1466 1466 1467 1468 1470 1471 1472 1474 1474 1474 1474 1473 1472 1471 1469 1467 1466 1464 1462 1459 1457 1454 1451 1448 1445 1441 1438 1434
1475 1481 1480 1482 1481 1479 1476 1473 1470 1468 1466 1464 1463 1462 1462 1463 1463 1463 1463 1463 1464 1466 1467 1469 1469 1469 1469 1468 1467 1466 1464 1463 1462 1460 1457 1455 1452 1449 1446 1443 1439 1436 1432 1428
1483 1483 1483 1483 1482 1479 1477 1474 1471 1469 1466 1464 1463 1462 1461 1461 1460 1460 1460 1460 1460 1461 1463 1464 1464 1464 1464 1463 1462 1460 1459 1458 1456 1455 1452 1450 1447 1444 1441 1438 1434 1430 1427 1423
1484 1484 1484 1484 1483 1481 1478 1476 1473 1471 1468 1466 1464 1462 1461 1459 1458 1458 1458 1457 1457 1458 1459 1459 1459 1459 1458 1458 1456 1455 1453 1452 1450 1448 1446 1444 1442 1439 1436 1433 1430 1426 1422 1418
1486 1486 1486 1486 1484 1482 1480 1477 1475 1472 1470 1468 1465 1463 1461 1460 1458 1457 1456 1455 1455 1455 1455 1454 1453 1453 1452 1451 1450 1448 1447 1446 1445 1443 1441 1439 1436 1434 1431 1428 1424 1421 1417 1414
1488 1488 1488 1486 1485 1483 1481 1478 1476 1474 1472 1470 1468 1465 1463 1461 1459 1457 1455 1454 1453 1452 1451 1450 1448 1447 1446 1445 1443 1441 1440 1439 1438 1436 1435 1433 1431 1428 1426 1423 1420 1416 1413 1410
1489 1489 1488 1487 1486 1484 1483 1481 1478 1476 1474 1471 1469 1466 1464 1461 1459 1457 1455 1453 1450 1448 1447 1445 1444 1442 1440 1438 1437 1435 1434 1433 1431 1429 1428 1427 1425 1423 1420 1418 1415 1411 1409 1405
1491 1490 1490 1488 1487 1485 1483 1481 1479 1476 1474 1471 1468 1466 1463 1461 1458 1455 1453 1450 1448 1445 1443 1441 1439 1436 1434 1432 1430 1429 1428 1427 1425 1424 1423 1421 1419 1418 1415 1413 1410 1407 1404 1401
1491 1490 1489 1488 1486 1484 1482 1480 1478 1475 1472 1470 1467 1465 1462 1460 1457 1454 1450 1447 1444 1442 1439 1436 1433 1430 1428 1426 1424 1422 1420 1419 1419 1418 1416 1415 1413 1412 1410 1408 1405 1403 1400 1398
1490 1489 1488 1487 1485 1483 1481 1478 1476 1473 1471 1468 1466 1463 1461 1458 1455 1451 1448 1445 1442 1439 1435 1431 1427 1424 1422 1420 1417 1416 1414 1413 1412 1411 1410 1409 1407 1406 1405 1403 1401 1399 1397 1394
1489 1488 1486 1485 1483 1481 1478 1476 1474 1471 1468 1466 1464 1461 1458 1455 1452 1449 1445 1441 1438 1435 1430 1426 1423 1420 1417 1414 1411 1410 1408 1407 1406 1405 1404 1403 1402 1401 1399 1398 1397 1395 1393 1391
1487 1485 1484 1482 1480 1477 1475 1473 1470 1468 1465 1463 1460 1458 1455 1452 1448 1445 1441 1438 1434 1430 1426 1422 1418 1414 1411 1407 1405 1403 1402 1401 1400 1398 1398 1397 1397 1396 1395 1394 1393 1392 1390 1388
1484 1482 1480 1478 1476 1473 1471 1469 1466 1464 1461 1459 1456 1454 1451 1448 1444 1440 1437 1433 1430 1425 1421 1417 1412 1408 1404 1400 1398 1397 1396 1394 1393 1393 1392 1392 1392 1391 1390 1390 1389 1388 1387 1385
1480 1478 1476 1474 1471 1469 1466 1463 1461 1459 1456 1454 1451 1448 1445 1442 1438 1435 1432 1428 1424 1420 1415 1411 1406 1401 1397 1394 1392 1391 1389 1388 1388 1387 1387 1387 1387 1387 1386 1386 1385 1385 1383 1382
1476 1474 1471 1469 1466 1463 1461 1458 1455 1453 1450 1448 1445 1442 1440 1437 1433 1430 1426 1423 1419 1414 1409 1405 1399 1395 1391 1389 1387 1385 1384 1384 1383 1383 1383 1383 1383 1383 1383 1382 1382 1382 1381 1380
1471 1468 1466 1464 1461 1458 1455 1452 1449 1447 1444 1441 1439 1436 1434 1431 1427 1424 1420 1417 1413 1408 1404 1400 1395 1391 1388 1385 1383 1381 1380 1379 1379 1379 1379 1379 1379 1379 1379 1379 1379 1379 1378 1377
1465 1462 1459 1457 1454 1452 1449 1446 1444 1441 1439 1436 1433 1430 1428 1424 1421 1418 1415 1411 1407 1403 1399 1395 1391 1387 1384 1381 1379 1377 1376 1375 1375 1375 1375 1376 1376 1376 1376 1376 1376 1376 1376 1375